Vanndale, AR (72387)

1:47 AM CST on February 12, 2016 (GMT -0600)
South Edmonds - MacTown | | Change Station
CLOSE
Current Station
Personal Weather Station
Location: McCrory, AR
Elevation: 207 ft
Nearby Weather Stations

Elev 207 ft 35.27 °N, 91.20 °W | Updated 6 seconds ago

Mostly Cloudy
Mostly Cloudy
34.2 °F
Feels Like 34 °F
N
0.2
Wind Variable Wind from NE
Gusts 2.5 mph

Today
High -- | Low -- °F
--% Chance of Precip.
Yesterday
High -- | Low -- °F
Precip. -- in
Pressure 30.20 in
Visibility 10.0 miles
Clouds Clear
Windchill 34 °F
Dew Point 27 °F
Humidity 74%
Rainfall 0.00 in
Snow Depth Not available.
6:53 AM 5:42 PM
Waxing Crescent, 18% visible
METAR KAWM 120653Z AUTO 35006KT 10SM CLR 03/M03 A3020 RMK AO2 SLP226 T00331028
Pressure 30.20 in
Visibility 10.0 miles
Clouds Clear
Windchill 34 °F
Dew Point 27 °F
Humidity 74%
Rainfall 0.00 in
Snow Depth Not available.
6:53 AM 5:42 PM
Waxing Crescent, 18% visible
METAR KAWM 120653Z AUTO 35006KT 10SM CLR 03/M03 A3020 RMK AO2 SLP226 T00331028

10-Day Weather Forecast

Almanac

Astronomy

Feb. 12, 2016 Rise Set
Actual Time
Civil Twilight
Nautical Twilight
Astronomical Twilight
Moon
Length of Visible Light
Length of Day
Tomorrow will be .
, % of the Moon is Illuminated

Today's Extremes

State Highs State Lows

Community

WunderPhotos

Upload Photos

1,892,278 photos uploaded!

WunderBlog® & News

Nearby

Air Quality

  Air Quality AQ Index Pollutant
Not available.

Snow Depth

Station Depth Elevation

Earthquake Activity

City Distance Mag. Time & Date
Minimum magnitude displayed is 2.5.

Coastal Water Temperatures

Place Temperature

Stations

Nearby Weather Stations

Station Location Temp. Windchill Dew Point Humidity Wind Precip. Elev Updated Type
                   

Watches & Warnings

There are currently no watches in effect.